Location: Fontevrault
(47.1823°N, 0.0493°E)
Time: 02:58:13
(UTC+00:00)

Cosmos 1459 Rocket - Pass Details

Date: 20 October 2021
Orbit: 936 x 1000 km, 83.0° (Epoch: 01 December)

Event Time Altitude Azimuth Distance (km) Brightness Sun altitude
Rises 04:56:22 0° 5° (N) 3,618 7.1 -15.8°
Reaches altitude 10° 05:01:12 10° 39° (NE) 2,660 6.9 -15.0°
Maximum altitude 05:02:56 11° 56° (ENE) 2,570 7.1 -14.7°
Drops below altitude 10° 05:04:40 10° 73° (ENE) 2,654 7.5 -14.4°
Sets 05:09:26 0° 107° (ESE) 3,593 8.5 -13.6°
